Location: GMARS
(34.2910°N, 116.3838°W)
Time: 12:52:04
(UTC-07:00)

OTV 5 (USA 277) - Visible Passes

Search period start: 19 October 2019 00:00
Search period end: 29 October 2019 00:00
Orbit: 310 x 324 km, 54.5° (Epoch: 17 October)

Date Brightness Start Highest point End Pass type
(mag) Time Alt. Az. Time Alt. Az. Time Alt. Az.
19 Oct ? 05:25:08 10° N 05:26:27 13° NE 05:27:45 10° ENE visible
20 Oct ? 05:39:38 18° N 05:41:11 31° NE 05:43:39 10° ESE visible
21 Oct ? 05:54:26 26° NW 05:55:44 67° SW 05:58:26 10° SE visible
22 Oct ? 06:09:21 16° WSW 06:10:09 18° SW 06:12:06 10° S visible
25 Oct ? 19:59:50 10° SW 19:59:57 11° SW 19:59:57 11° SW visible
26 Oct ? 18:41:00 10° S 18:42:56 18° SE 18:43:54 15° E visible
27 Oct ? 18:54:40 10° SW 18:57:20 66° SE 18:58:38 27° NE visible
28 Oct ? 19:09:25 10° WSW 19:11:54 31° NW 19:13:13 20° N visible
